TimeCDT,TemperatureF,Dew PointF,Humidity,Sea Level PressureIn,VisibilityMPH,Wind Direction,Wind SpeedMPH,Gust SpeedMPH,PrecipitationIn,Events,Conditions,WindDirDegrees,DateUTC
12:53 AM,77.0,63.0,62,29.45,10.0,ESE,10.4,20.7,N/A,,Clear,120,2012-05-24 05:53:00
1:53 AM,75.9,63.0,64,29.42,10.0,SE,10.4,19.6,N/A,,Clear,140,2012-05-24 06:53:00
2:53 AM,77.0,61.0,58,29.39,10.0,SE,16.1,23.0,N/A,,Clear,140,2012-05-24 07:53:00
3:53 AM,75.9,62.1,62,29.36,10.0,SSE,15.0,25.3,N/A,,Clear,150,2012-05-24 08:53:00
4:53 AM,77.0,61.0,58,29.36,10.0,SSE,13.8,28.8,N/A,,Clear,160,2012-05-24 09:53:00
5:53 AM,75.9,62.1,62,29.39,10.0,SSE,6.9,20.7,N/A,,Clear,150,2012-05-24 10:53:00
6:53 AM,75.9,62.1,62,29.42,10.0,South,6.9,-,N/A,,Overcast,170,2012-05-24 11:53:00
7:53 AM,75.9,63.0,64,29.44,10.0,South,8.1,-,N/A,,Overcast,170,2012-05-24 12:53:00
8:53 AM,77.0,64.0,64,29.43,10.0,South,15.0,23.0,N/A,,Overcast,170,2012-05-24 13:53:00
9:53 AM,78.1,64.9,64,29.42,10.0,South,20.7,29.9,N/A,,Scattered Clouds,180,2012-05-24 14:53:00
10:53 AM,78.1,66.0,66,29.44,10.0,South,13.8,-,N/A,,Overcast,180,2012-05-24 15:53:00
11:53 AM,80.1,66.9,64,29.45,10.0,South,13.8,-,N/A,,Overcast,180,2012-05-24 16:53:00
12:53 PM,84.0,68.0,58,29.45,10.0,SSW,15.0,23.0,N/A,,Mostly Cloudy,200,2012-05-24 17:53:00
1:53 PM,86.0,68.0,55,29.46,10.0,South,11.5,21.9,N/A,,Mostly Cloudy,180,2012-05-24 18:53:00
2:53 PM,87.1,66.9,51,29.47,10.0,SSW,13.8,-,N/A,,Partly Cloudy,200,2012-05-24 19:53:00
3:53 PM,88.0,68.0,51,29.47,10.0,SSW,17.3,21.9,N/A,,Scattered Clouds,200,2012-05-24 20:53:00
4:53 PM,88.0,69.1,53,29.49,10.0,SSW,10.4,19.6,N/A,,Mostly Cloudy,200,2012-05-24 21:53:00
5:53 PM,90.0,61.0,38,29.52,10.0,West,8.1,17.3,N/A,,Scattered Clouds,280,2012-05-24 22:53:00
6:53 PM,86.0,57.0,37,29.54,10.0,WNW,12.7,20.7,N/A,,Partly Cloudy,300,2012-05-24 23:53:00
7:53 PM,82.9,57.9,42,29.57,10.0,NW,6.9,-,N/A,,Clear,320,2012-05-25 00:53:00
8:53 PM,78.1,55.9,46,29.63,10.0,NNE,3.5,-,N/A,,Mostly Cloudy,20,2012-05-25 01:53:00
9:53 PM,73.9,57.0,55,29.66,10.0,North,5.8,-,N/A,,Clear,10,2012-05-25 02:53:00
10:53 PM,75.0,55.0,50,29.73,10.0,NE,5.8,-,N/A,,Overcast,50,2012-05-25 03:53:00
11:53 PM,72.0,55.9,57,29.73,10.0,NE,3.5,-,N/A,,Clear,50,2012-05-25 04:53:00